This demonstration page uses our WeatherBlox Daily Observations layout. Learn more.

Left ArrowRight Arrow

Hourly Observations for September 29, 2021

Temp ( °F °C ) Dew Point ( °F °C ) Humidity (%) Winds ( mph kmh ) Pressure ( in mb ) Visibility ( mi km ) Precip ( " mm )
12:53 am 00:53 Clear 69 20.6 47 8.3 45 45 W 9 15 29.72 1007 10 16 0.00 0.00
1:53 am 01:53 Clear 69 20.6 47 8.3 45 45 WSW 10 17 29.72 1006 10 16 0.00 0.00
2:53 am 02:53 Clear 66 18.9 47 8.3 50 50 SW 8 13 29.72 1007 10 16 0.00 0.00
3:53 am 03:53 Clear 64 17.8 47 8.3 54 54 SW 5 7 29.73 1007 10 16 0.00 0.00
4:53 am 04:53 Clear 60 15.6 46 7.8 60 60 Calm 29.73 1007 10 16 0.00 0.00
5:53 am 05:53 Clear 61 16.1 47 8.3 60 60 WSW 8 13 29.73 1007 10 16 0.00 0.00
6:53 am 06:53 Clear 61 16.1 48 8.9 63 63 SW 5 7 29.75 1008 10 16 0.00 0.00
7:53 am 07:53 Sunny 62 16.7 48 8.9 60 60 W 7 11 29.77 1008 10 16 0.00 0.00
8:53 am 08:53 Sunny 71 21.7 50 10 47 47 W 8 13 29.78 1008 10 16 0.00 0.00
9:53 am 09:53 Sunny 76 24.4 50 10 40 40 W 9 15 29.79 1009 9 14 0.00 0.00
10:53 am 10:53 Sunny 79 26.1 51 10.6 38 38 WSW 12 19 29.79 1009 10 16 0.00 0.00
11:53 am 11:53 Sunny 82 27.8 51 10.6 34 34 WSW 10 17 29.78 1009 10 16 0.00 0.00
12:53 pm 12:53 Sunny 85 29.4 49 9.4 29 29 W 10 17 29.76 1008 10 16 0.00 0.00
1:53 pm 13:53 Sunny 87 30.6 48 8.9 26 26 undefined N/A 29.74 1007 10 16 0.00 0.00
2:53 pm 14:53 Mostly Sunny 87 30.6 47 8.3 25 25 undefined N/A 29.71 1006 10 16 0.00 0.00
3:53 pm 15:53 Sunny 90 32.2 46 7.8 22 22 W 12 19 29.69 1005 10 16 0.00 0.00
4:53 pm 16:53 Mostly Sunny 90 32.2 45 7.2 21 21 WNW 10 17 29.68 1005 10 16 0.00 0.00
5:53 pm 17:53 Sunny 90 32.2 45 7.2 21 21 WSW 10 17 29.67 1005 10 16 0.00 0.00
6:53 pm 18:53 Sunny 89 31.7 41 5 19 19 W 13 20 29.68 1005 10 16 0.00 0.00
7:53 pm 19:53 Clear 83 28.3 42 5.6 24 24 WSW 6 9 29.70 1006 10 16 0.00 0.00
8:53 pm 20:53 Clear 77 25 43 6.1 30 30 WSW 9 15 29.71 1006 10 16 0.00 0.00
9:53 pm 21:53 Clear 74 23.3 43 6.1 33 33 W 9 15 29.73 1007 10 16 0.00 0.00
10:53 pm 22:53 Clear 72 22.2 43 6.1 35 35 W 8 13 29.74 1007 10 16 0.00 0.00
11:53 pm 23:53 Partly Cloudy 70 21.1 43 6.1 38 38 N 5 7 29.76 1008 10 16 0.00 0.00

Powered by AerisWeather